Location: Bernadets
(43.3537°N, 0.3167°E)
Time: 21:46:21
(UTC+00:00)

Cosmos 2228 - Pass Details

Date: 24 October 2021
Orbit: 587 x 619 km, 82.5° (Epoch: 06 December)

Event Time Altitude Azimuth Distance (km) Brightness Sun altitude
Rises 18:16:58 0° 161° (SSE) 2,871 6.3 -14.4°
Reaches altitude 10° 18:19:22 10° 151° (SSE) 1,975 5.4 -14.8°
Maximum altitude 18:23:11 30° 90° (E) 1,113 3.8 -15.5°
Drops below altitude 10° 18:27:02 10° 29° (NNE) 1,993 5.4 -16.2°
Sets 18:29:28 0° 19° (NNE) 2,904 6.3 -16.7°
